Zurück zum Katalog

CZ-6A DEB

AktivPO
NORAD 60883·DEBRIS·🇨🇳 China

Gestartet Aug 6, 2024 von Taiyuan Satellite Launch Center

Loading…

Nächste Überflüge (nächste 24 Stunden)

TLE

AktuellSource: Space-Track

Epoche: Sep 14, 2026, 09:27 UTC

1 60883U 24140KN  26257.39422210  .00003432  00000-0  39416-3 0  9999
2 60883  88.8021 236.9210 0127867 234.5912 124.3317 14.79801654111160

Verfolge CZ-6A DEB in Echtzeit mit AllMySat

Download on the App Store